Weather History for Moultrie, GA

Change the Weather History Date:

Sunday, February 10, 2013

  Actual Average (KMUL) Record (KMUL)
Temperature  
Mean Temperature 60 °F -  
Max Temperature 75 °F 61 °F 85 °F (1932)
Min Temperature 46 °F 36 °F 18 °F (1971)
Degree Days  
Heating Degree Days 4    
Growing Degree Days 10 (Base 50)    
Moisture  
Dew Point 49 °F    
Average Humidity 64    
Maximum Humidity 82    
Minimum Humidity 50    
Precipitation  
Precipitation 0.00 in - - ()
Sea Level Pressure  
Sea Level Pressure 30.21 in    
Wind  
Wind Speed 6 mph (SE)    
Max Wind Speed 15 mph    
Max Gust Speed 21 mph    
Visibility 10 miles    
Events      
Averages and records for this station are not official NWS values.
T = Trace of Precipitation, MM = Missing Value Source: NWS Daily Summary

Daily Weather History Graph

Daily Weather History Graph

Search for Another Location

Airport:

Trip Planner

Search our weather history database for the weather conditions in past years. The results will help you decide how hot, cold, wet, or windy it might be!

Date:

Astronomy

Feb. 10, 2013 Rise Set
Actual Time 7:20 AM EST 6:18 PM EST
Civil Twilight 6:55 AM EST 6:43 PM EST
Nautical Twilight 6:27 AM EST 7:12 PM EST
Astronomical Twilight 5:58 AM EST 7:40 PM EST
Moon 7:14 AM EST (2/10) 7:01 PM EST (2/10)
Length of Visible Light 11h 48m
Length of Day
10h 58m
Waxing Crescent, 0% of the Moon is Illuminated
Feb 10
Waxing Crescent
Feb 17
First Quarter
Feb 25
Full
Mar 4
Last Quarter
Mar 11
New

Hourly Weather History & Observations

Time (EST) Temp. Windchill Dew Point Humidity Pressure Visibility Wind Dir Wind Speed Gust Speed Precip Events Conditions
12:15 AM 51.8 °F - 33.8 °F 50% 30.26 in 10.0 mi East 4.6 mph - N/A   Clear
12:35 AM 50.0 °F - 33.8 °F 54% 30.26 in 10.0 mi East 4.6 mph - N/A   Clear
12:55 AM 50.0 °F - 35.6 °F 58% 30.26 in 10.0 mi East 3.5 mph - N/A   Clear
1:15 AM 50.0 °F - 35.6 °F 58% 30.25 in 10.0 mi East 3.5 mph - N/A   Clear
1:35 AM 48.2 °F - 37.4 °F 66% 30.25 in 10.0 mi East 3.5 mph - N/A   Clear
1:55 AM 48.2 °F - 37.4 °F 66% 30.26 in 10.0 mi ESE 3.5 mph - N/A   Clear
2:15 AM 48.2 °F - 37.4 °F 66% 30.25 in 10.0 mi Calm Calm - N/A   Clear
2:35 AM 48.2 °F - 39.2 °F 71% 30.25 in 10.0 mi Calm Calm - N/A   Clear
2:55 AM 46.4 °F - 37.4 °F 71% 30.25 in 10.0 mi Calm Calm - N/A   Clear
3:15 AM 46.4 °F 45.2 °F 39.2 °F 76% 30.24 in 10.0 mi East 3.5 mph - N/A   Clear
3:35 AM 48.2 °F - 39.2 °F 71% 30.23 in 10.0 mi East 4.6 mph - N/A   Clear
3:55 AM 50.0 °F - 37.4 °F 62% 30.23 in 10.0 mi East 4.6 mph - N/A   Clear
4:15 AM 50.0 °F - 35.6 °F 58% 30.23 in 10.0 mi East 3.5 mph - N/A   Clear
4:35 AM 50.0 °F - 35.6 °F 58% 30.23 in 10.0 mi East 3.5 mph - N/A   Clear
4:55 AM 50.0 °F - 35.6 °F 58% 30.23 in 10.0 mi East 4.6 mph - N/A   Clear
5:15 AM 50.0 °F - 35.6 °F 58% 30.23 in 10.0 mi Calm Calm - N/A   Clear
5:35 AM 50.0 °F - 35.6 °F 58% 30.23 in 10.0 mi East 3.5 mph - N/A   Clear
5:55 AM 50.0 °F - 37.4 °F 62% 30.24 in 10.0 mi Calm Calm - N/A   Clear
6:15 AM 48.2 °F - 37.4 °F 66% 30.26 in 10.0 mi Calm Calm - N/A   Clear
6:35 AM 48.2 °F - 39.2 °F 71% 30.26 in 10.0 mi ENE 3.5 mph - N/A   Clear
6:55 AM 50.0 °F - 41.0 °F 71% 30.27 in 10.0 mi Calm Calm - N/A   Clear
7:15 AM 48.2 °F - 41.0 °F 76% 30.27 in 10.0 mi East 3.5 mph - N/A   Clear
7:35 AM 50.0 °F - 42.8 °F 76% 30.28 in 10.0 mi Calm Calm - N/A   Scattered Clouds
7:55 AM 50.0 °F - 42.8 °F 76% 30.28 in 10.0 mi East 3.5 mph - N/A   Mostly Cloudy
8:15 AM 50.0 °F - 44.6 °F 82% 30.28 in 10.0 mi East 3.5 mph - N/A   Scattered Clouds
8:35 AM 51.8 °F - 44.6 °F 76% 30.27 in 10.0 mi ESE 5.8 mph - N/A   Scattered Clouds
8:55 AM 53.6 °F - 46.4 °F 77% 30.26 in 10.0 mi ESE 9.2 mph - N/A   Mostly Cloudy
9:15 AM 55.4 °F - 46.4 °F 72% 30.27 in 10.0 mi East 8.1 mph - N/A   Mostly Cloudy
9:35 AM 55.4 °F - 48.2 °F 77% 30.28 in 10.0 mi East 6.9 mph - N/A   Overcast
9:55 AM 57.2 °F - 50.0 °F 77% 30.28 in 10.0 mi ESE 5.8 mph - N/A   Overcast
10:15 AM 60.8 °F - 50.0 °F 68% 30.28 in 10.0 mi ESE 10.4 mph 16.1 mph N/A   Mostly Cloudy
10:35 AM 62.6 °F - 51.8 °F 68% 30.28 in 10.0 mi ESE 10.4 mph - N/A   Scattered Clouds
10:55 AM 62.6 °F - 51.8 °F 68% 30.28 in 10.0 mi SE 12.7 mph 17.3 mph N/A   Scattered Clouds
11:15 AM 66.2 °F - 51.8 °F 60% 30.27 in 10.0 mi SE 13.8 mph 20.7 mph N/A   Mostly Cloudy
11:35 AM 66.2 °F - 51.8 °F 60% 30.27 in 10.0 mi SE 9.2 mph - N/A   Mostly Cloudy
11:55 AM 68.0 °F - 51.8 °F 56% 30.27 in 10.0 mi SE 10.4 mph 18.4 mph N/A   Mostly Cloudy
12:15 PM 68.0 °F - 53.6 °F 60% 30.26 in 10.0 mi SE 11.5 mph 17.3 mph N/A   Mostly Cloudy
12:35 PM 68.0 °F - 53.6 °F 60% 30.26 in 10.0 mi SE 11.5 mph 16.1 mph N/A   Mostly Cloudy
12:55 PM 71.6 °F - 53.6 °F 53% 30.24 in 10.0 mi SE 11.5 mph 17.3 mph N/A   Mostly Cloudy
1:15 PM 71.6 °F - 53.6 °F 53% 30.23 in 10.0 mi SSE 11.5 mph 17.3 mph N/A   Scattered Clouds
1:35 PM 71.6 °F - 53.6 °F 53% 30.21 in 10.0 mi SE 8.1 mph 17.3 mph N/A   Mostly Cloudy
1:55 PM 71.6 °F - 55.4 °F 57% 30.20 in 10.0 mi SSE 11.5 mph 17.3 mph N/A   Scattered Clouds
2:15 PM 71.6 °F - 55.4 °F 57% 30.19 in 10.0 mi SE 11.5 mph 16.1 mph N/A   Mostly Cloudy
2:35 PM 73.4 °F - 55.4 °F 53% 30.18 in 10.0 mi SE 15.0 mph 18.4 mph N/A   Mostly Cloudy
2:55 PM 73.4 °F - 55.4 °F 53% 30.18 in 10.0 mi SSE 10.4 mph 16.1 mph N/A   Scattered Clouds
3:15 PM 75.2 °F - 55.4 °F 50% 30.16 in 10.0 mi SE 13.8 mph 20.7 mph N/A   Scattered Clouds
3:35 PM 73.4 °F - 55.4 °F 53% 30.15 in 10.0 mi SE 13.8 mph 19.6 mph N/A   Scattered Clouds
3:55 PM 73.4 °F - 55.4 °F 53% 30.15 in 10.0 mi SE 13.8 mph 19.6 mph N/A   Scattered Clouds
4:15 PM 73.4 °F - 55.4 °F 53% 30.15 in 10.0 mi SSE 13.8 mph 20.7 mph N/A   Scattered Clouds
4:35 PM 73.4 °F - 55.4 °F 53% 30.15 in 10.0 mi South 8.1 mph - N/A   Mostly Cloudy
4:55 PM 73.4 °F - 57.2 °F 57% 30.14 in 10.0 mi SSE 10.4 mph - N/A   Overcast
5:15 PM 73.4 °F - 57.2 °F 57% 30.13 in 10.0 mi SSE 8.1 mph 16.1 mph N/A   Mostly Cloudy
5:35 PM 73.4 °F - 57.2 °F 57% 30.12 in 10.0 mi SSE 10.4 mph - N/A   Scattered Clouds
5:55 PM 71.6 °F - 57.2 °F 60% 30.12 in 10.0 mi SSE 8.1 mph - N/A   Clear
6:15 PM 71.6 °F - 57.2 °F 60% 30.12 in 10.0 mi SSE 5.8 mph - N/A   Clear
6:35 PM 71.6 °F - 57.2 °F 60% 30.13 in 10.0 mi South 5.8 mph - N/A   Scattered Clouds
6:55 PM 69.8 °F - 59.0 °F 68% 30.13 in 10.0 mi SSE 5.8 mph - N/A   Scattered Clouds
7:15 PM 69.8 °F - 59.0 °F 68% 30.11 in 10.0 mi SSE 4.6 mph - N/A   Clear
7:35 PM 69.8 °F - 59.0 °F 68% 30.12 in 10.0 mi South 3.5 mph - N/A   Clear
7:55 PM 69.8 °F - 57.2 °F 64% 30.13 in 10.0 mi SSE 4.6 mph - N/A   Clear
8:15 PM 69.8 °F - 57.2 °F 64% 30.14 in 10.0 mi South 4.6 mph - N/A   Scattered Clouds
8:35 PM 68.0 °F - 57.2 °F 68% 30.13 in 10.0 mi SSE 5.8 mph - N/A   Scattered Clouds
8:55 PM 68.0 °F - 57.2 °F 68% 30.13 in 10.0 mi SSE 6.9 mph - N/A   Mostly Cloudy
9:15 PM 68.0 °F - 57.2 °F 68% 30.12 in 10.0 mi SSE 6.9 mph - N/A   Mostly Cloudy
9:35 PM 68.0 °F - 57.2 °F 68% 30.11 in 10.0 mi SSE 8.1 mph - N/A   Scattered Clouds
9:55 PM 68.0 °F - 57.2 °F 68% 30.12 in 10.0 mi SSE 9.2 mph - N/A   Clear
10:15 PM 68.0 °F - 57.2 °F 68% 30.13 in 10.0 mi SSE 6.9 mph - N/A   Clear
10:35 PM 68.0 °F - 57.2 °F 68% 30.14 in 10.0 mi South 3.5 mph - N/A   Clear
10:55 PM 68.0 °F - 59.0 °F 73% 30.14 in 10.0 mi SE 4.6 mph - N/A   Mostly Cloudy
11:15 PM 68.0 °F - 59.0 °F 73% 30.13 in 10.0 mi SE 6.9 mph - N/A   Overcast
11:35 PM 68.0 °F - 59.0 °F 73% 30.14 in 10.0 mi SE 8.1 mph - N/A   Overcast
11:55 PM 68.0 °F - 57.2 °F 68% 30.13 in 10.0 mi SSE 9.2 mph - N/A   Mostly Cloudy